Weather History for Gunnison, CO

Change the Weather History Date:

Sunday, December 23, 2012

  Actual Average Record
Temperature  
Mean Temperature 8 °F -  
Max Temperature 23 °F 22 °F 37 °F (2005)
Min Temperature -7 °F 0 °F -14 °F (2001)
Degree Days  
Heating Degree Days 57    
Moisture  
Dew Point -6 °F    
Average Humidity 56    
Maximum Humidity 92    
Minimum Humidity 22    
Precipitation  
Precipitation 0.00 in - - ()
Sea Level Pressure  
Sea Level Pressure 30.16 in    
Wind  
Wind Speed 1 mph (NE)    
Max Wind Speed 8 mph    
Max Gust Speed -    
Visibility 10 miles    
Events      
Averages and records for this station are not official NWS values.
T = Trace of Precipitation, MM = Missing Value Source: NWS Daily Summary

Daily Weather History Graph

Daily Weather History Graph

Search for Another Location

Airport:

Trip Planner

Search our weather history database for the weather conditions in past years. The results will help you decide how hot, cold, wet, or windy it might be!

Date:

Astronomy

Dec. 23, 2012 Rise Set
Actual Time 7:22 AM MST 4:51 PM MST
Civil Twilight 6:53 AM MST 5:21 PM MST
Nautical Twilight 6:19 AM MST 5:54 PM MST
Astronomical Twilight 5:47 AM MST 6:26 PM MST
Moon 1:42 PM MST (12/23) 3:09 AM MST (12/23)
Length of Visible Light 10h 28m
Length of Day
9h 28m
Waxing Gibbous, 82% of the Moon is Illuminated
Dec 23
Waxing Gibbous
Dec 28
Full
Jan 4
Last Quarter
Jan 11
New
Jan 18
First Quarter

Hourly Weather History & Observations

Time (MST) Temp. Windchill Dew Point Humidity Pressure Visibility Wind Dir Wind Speed Gust Speed Precip Events Conditions
12:15 AM -7.6 °F - -27.4 °F 38% 30.22 in 10.0 mi Calm Calm - N/A   Clear
12:35 AM -7.6 °F - -25.6 °F 41% 30.21 in 10.0 mi Calm Calm - N/A   Clear
1:15 AM -7.6 °F -20.6 °F -20.2 °F 54% 30.20 in 10.0 mi East 5.8 mph - N/A   Clear
2:15 AM -7.6 °F -16.5 °F -20.2 °F 54% 30.21 in 10.0 mi ENE 3.5 mph - N/A   Clear
2:55 AM -5.8 °F -16.7 °F -13.0 °F 71% 30.21 in 10.0 mi NE 4.6 mph - N/A   Clear
3:15 AM -5.8 °F - -18.4 °F 55% 30.21 in 10.0 mi Calm Calm - N/A   Partly Cloudy
3:35 AM -5.8 °F -14.5 °F -14.8 °F 65% 30.20 in 10.0 mi ENE 3.5 mph - N/A   Mostly Cloudy
3:55 AM -5.8 °F - -16.6 °F 60% 30.20 in 10.0 mi Calm Calm - N/A   Mostly Cloudy
4:15 AM -5.8 °F - -14.8 °F 65% 30.20 in 10.0 mi Calm Calm - N/A   Mostly Cloudy
4:55 AM -5.8 °F - -14.8 °F 65% 30.19 in 10.0 mi Calm Calm - N/A   Mostly Cloudy
5:15 AM -5.8 °F - -16.6 °F 60% 30.19 in 10.0 mi Calm Calm - N/A   Mostly Cloudy
5:35 AM -4.0 °F - -11.2 °F 71% 30.19 in 10.0 mi Calm Calm - N/A   Overcast
5:55 AM -2.2 °F - -14.8 °F 55% 30.19 in 10.0 mi Calm Calm - N/A   Overcast
6:15 AM -2.2 °F -10.4 °F -9.4 °F 71% 30.19 in 10.0 mi SE 3.5 mph - N/A   Overcast
6:35 AM -2.2 °F - -14.8 °F 55% 30.20 in 10.0 mi Calm Calm - N/A   Overcast
6:55 AM -2.2 °F -14.2 °F -5.8 °F 85% 30.20 in 10.0 mi North 5.8 mph - N/A   Overcast
7:35 AM 1.4 °F - -18.4 °F 39% 30.20 in 10.0 mi Calm Calm - N/A   Scattered Clouds
7:55 AM -0.4 °F - -31.0 °F 22% 30.20 in 10.0 mi Calm Calm - N/A   Clear
8:15 AM -0.4 °F - -25.6 °F 30% 30.20 in 10.0 mi Calm Calm - N/A   Clear
8:35 AM 1.4 °F - -20.2 °F 36% 30.21 in 10.0 mi Calm Calm - N/A   Mostly Cloudy
8:55 AM 1.4 °F - -22.0 °F 33% 30.22 in 10.0 mi Calm Calm - N/A   Mostly Cloudy
9:35 AM 3.2 °F - -13.0 °F 47% 30.23 in 10.0 mi Calm Calm - N/A   Mostly Cloudy
9:55 AM 6.8 °F - -7.6 °F 52% 30.24 in 10.0 mi Calm Calm - N/A   Mostly Cloudy
10:15 AM 5.0 °F - -11.2 °F 47% 30.24 in 10.0 mi Calm Calm - N/A   Scattered Clouds
10:35 AM 10.4 °F - -13.0 °F 34% 30.23 in 10.0 mi Calm Calm - N/A   Clear
10:55 AM 8.6 °F - -5.8 °F 52% 30.22 in 10.0 mi Calm Calm - N/A   Scattered Clouds
11:35 AM 10.4 °F - -16.6 °F 29% 30.21 in 10.0 mi Calm Calm - N/A   Partly Cloudy
11:55 AM 12.2 °F - -20.2 °F 22% 30.20 in 10.0 mi Calm Calm - N/A   Partly Cloudy
12:15 PM 12.2 °F - 10.4 °F 92% 30.19 in 10.0 mi Calm Calm - N/A   Partly Cloudy
12:35 PM 15.8 °F - -5.8 °F 38% 30.18 in 10.0 mi Calm Calm - N/A   Clear
12:55 PM 17.6 °F - 1.4 °F 49% 30.17 in 10.0 mi Calm Calm - N/A   Clear
1:15 PM 17.6 °F - 1.4 °F 49% 30.16 in 10.0 mi Calm Calm - N/A   Clear
1:35 PM 19.4 °F - 3.2 °F 49% 30.16 in 10.0 mi Calm Calm - N/A   Clear
1:55 PM 19.4 °F - 3.2 °F 49% 30.15 in 10.0 mi Calm Calm - N/A   Clear
2:15 PM 23.0 °F - 3.2 °F 43% 30.14 in 10.0 mi Calm Calm - N/A   Clear
2:35 PM 23.0 °F 17.0 °F 3.2 °F 43% 30.14 in 10.0 mi NE 4.6 mph - N/A   Clear
3:15 PM 21.2 °F 16.4 °F 1.4 °F 42% 30.13 in 10.0 mi East 3.5 mph - N/A   Clear
3:35 PM 23.0 °F 17.0 °F 3.2 °F 43% 30.12 in 10.0 mi ENE 4.6 mph - N/A   Clear
3:55 PM 23.0 °F 17.0 °F 3.2 °F 43% 30.12 in 10.0 mi NNE 4.6 mph - N/A   Clear
4:15 PM 23.0 °F 18.4 °F 3.2 °F 43% 30.11 in 10.0 mi NNE 3.5 mph - N/A   Clear
4:55 PM 19.4 °F 14.3 °F 1.4 °F 46% 30.11 in 10.0 mi North 3.5 mph - N/A   Clear
5:15 PM 15.8 °F - -0.4 °F 49% 30.09 in 10.0 mi Calm Calm - N/A   Clear
5:35 PM 17.6 °F 10.7 °F 5.0 °F 58% 30.10 in 10.0 mi North 4.6 mph - N/A   Clear
5:55 PM 17.6 °F 9.3 °F 5.0 °F 58% 30.09 in 10.0 mi North 5.8 mph - N/A   Clear
6:15 PM 15.8 °F - 5.0 °F 62% 30.09 in 10.0 mi Calm Calm - N/A   Clear
6:35 PM 15.8 °F - 6.8 °F 68% 30.09 in 10.0 mi Calm Calm - N/A   Clear
6:55 PM 12.2 °F - 1.4 °F 62% 30.09 in 10.0 mi Calm Calm - N/A   Clear
7:15 PM 12.2 °F 6.1 °F 6.8 °F 79% 30.09 in 10.0 mi SW 3.5 mph - N/A   Clear
7:55 PM 10.4 °F 4.0 °F 3.2 °F 73% 30.09 in 10.0 mi SSW 3.5 mph - N/A   Clear
8:15 PM 10.4 °F 2.2 °F 5.0 °F 79% 30.09 in 10.0 mi SW 4.6 mph - N/A   Clear
8:35 PM 12.2 °F - 6.8 °F 79% 30.10 in 10.0 mi Calm Calm - N/A   Clear
8:55 PM 12.2 °F 6.1 °F 3.2 °F 67% 30.10 in 10.0 mi South 3.5 mph - N/A   Clear
9:15 PM 10.4 °F - 5.0 °F 79% 30.11 in 10.0 mi Calm Calm - N/A   Clear
9:35 PM 12.2 °F 0.7 °F 6.8 °F 79% 30.10 in 10.0 mi ENE 8.1 mph - N/A   Clear
9:55 PM 10.4 °F 4.0 °F 1.4 °F 67% 30.11 in 10.0 mi North 3.5 mph - N/A   Clear
10:15 PM 12.2 °F 6.1 °F 6.8 °F 79% 30.11 in 10.0 mi North 3.5 mph - N/A   Clear
10:55 PM 12.2 °F 4.3 °F 6.8 °F 79% 30.11 in 10.0 mi NE 4.6 mph - N/A   Partly Cloudy
11:15 PM 10.4 °F - 1.4 °F 67% 30.11 in 10.0 mi Calm Calm - N/A   Partly Cloudy
11:35 PM 10.4 °F 4.0 °F 5.0 °F 79% 30.10 in 10.0 mi ENE 3.5 mph - N/A   Mostly Cloudy
11:55 PM 10.4 °F - 6.8 °F 85% 30.08 in 10.0 mi Calm Calm - N/A   Overcast